Weather Roundup
Issued by NWS Corpus Christi, TX

Home | Current Version | Previous Version | Text Only | Print | Product List | Glossary On
Versions: 1 2 3 4 5 6 7 8 9 10 11 12 13 14 15 16 17 18 19 20 21 22 23 24 25 26 27 28 29 30 31 32 33 34 35 36 37 38 39 40 41 42 43 44 45 46 47 48 49 50
000
ASUS44 KCRP 291810
HRRCRP

SOUTH TEXAS REGIONAL WEATHER ROUNDUP
NATIONAL WEATHER SERVICE CORPUS CHRISTI TX
100 PM CDT FRI AUG 29 2014


TXZ229>244-291900-
...CORPUS CHRISTI AREA OBSERVATIONS...

CITY           SKY/WX    TMP DP  RH WIND       PRES   REMARKS
CORPUS CHRISTI CLOUDY    82  76  81 SE6       29.83F
NAS CORPUS CHR CLOUDY    83  75  77 VRB3      29.82F HX  90
ROCKPORT       CLOUDY    84  75  74 CALM      29.84F HX  92
KINGSVILLE NAS CLOUDY    82  78  88 S5        29.82F HX  91
ALICE          CLOUDY    82  75  79 VRB3      29.83F
FALFURRIAS     CLOUDY    75  68  77 E5        29.81F
$$

...VICTORIA AREA OBSERVATIONS...

CITY           SKY/WX    TMP DP  RH WIND       PRES   REMARKS
VICTORIA       PTSUNNY   94  72  48 E12G20    29.86F HX 102
BEEVILLE       FAIR      88  73  60 SE10      29.85F HX  95
PLEASANTON     MOSUNNY   93  68  44 SE10      29.86F HX  97
SAN ANTONIO    PTSUNNY   92  69  47 E7        29.89F HX  97
$$

...LAREDO AREA OBSERVATIONS...

CITY           SKY/WX    TMP DP  RH WIND       PRES   REMARKS
LAREDO         MOSUNNY   90  72  55 E8        29.87F HX  97
COTULLA        PTSUNNY   93  69  45 E12G17    29.86F HX  98
DEL RIO        PTSUNNY   89  69  51 SE8       29.88F HX  93
MCALLEN        CLOUDY    89  75  63 S5        29.80F HX  99
HEBBRONVILLE   CLOUDY    85  71  63 NE6       29.85F HX  91
$$

...OTHER TEXAS OBSERVATIONS...

CITY           SKY/WX    TMP DP  RH WIND       PRES   REMARKS
BROWNSVILLE    CLOUDY    81  79  94 SE10      29.81F HX  90
HOUSTON        PTSUNNY   90  73  58 E15       29.89F HX  98
COL. STATION   MOSUNNY   91  71  51 E13       29.88F HX  97
AUSTIN         PTSUNNY   92  70  48 E8        29.88F HX  97
WACO           SUNNY     87  71  58 S7        29.91F HX  93
FORT WORTH     PTSUNNY   84  68  58 CALM      29.92F
WICHITA FALLS  PTSUNNY   72  69  90 VRB3      29.96R
LUBBOCK        MOSUNNY   80  64  58 VRB6      30.03F
EL PASO        MOSUNNY   87  46  24 NW3       30.05F
$$

...MARINE OBSERVATIONS...

STATION/POSITION TIME  SKY/WX   TEMP    WIND        PRES    VSBY  WAVE   SWELL
                                AIR SEA DIR/SP/G                  HT/PER HT/PER
                 (UTC)          (F)     (DEG/KT/KT) (MB)    (MI)  (FT/S) (FT/S)
PORT ARANSAS     1800            81 85  200/  1/  2 1010.7F
BUOY 90 E PORT A 1800            82 86   60/ 10/ 12 1011.3F         5/ 7   5/ 7
BUOY 45 SE BAFFI 1800            81 85  270/  4/  4 1009.7R         3/ 6   3/ 6
BUOY 200 E PT IS 1800            76 85  130/ 12/ 16 1011.7R         4/ 5   2/ 6
BUOY 15 E GALVES 1800            82 86  110/ 14/ 17 1011.4F         5/ 5   2/ 7
$$


USA.gov is the U.S. government's official web portal to all federal, state and local government web resources and services.